Location: Makanda
(37.6176°N, 89.2090°W)
Time: 00:34:57
(UTC+00:00)

COSMO-SKYMED 1 - Pass Details

Date: 23 September 2019
Orbit: 621 x 623 km, 97.9° (Epoch: 19 October)

Event Time Altitude Azimuth Distance (km) Brightness Sun altitude
Rises 00:15:12 0° 8° (N) 2,908 6.0 -5.0°
Reaches altitude 10° 00:17:25 10° 5° (N) 1,997 5.2 -5.5°
Maximum altitude 00:21:42 61° 285° (WNW) 709 3.3 -6.3°
Drops below altitude 10° 00:25:57 10° 206° (SSW) 1,983 5.4 -7.1°
Sets 00:28:08 0° 202° (SSW) 2,884 6.2 -7.6°
